TimePST,TemperatureF,Dew PointF,Humidity,Sea Level PressureIn,VisibilityMPH,Wind Direction,Wind SpeedMPH,Gust SpeedMPH,PrecipitationIn,Events,Conditions,WindDirDegrees,DateUTC
12:53 AM,23.0,16.0,74,30.34,10.0,Calm,Calm,-,N/A,,Clear,0,2012-11-24 08:53:00
1:53 AM,19.9,12.9,74,30.34,10.0,East,3.5,-,N/A,,Clear,90,2012-11-24 09:53:00
2:53 AM,19.9,15.1,81,30.33,10.0,Calm,Calm,-,N/A,,Clear,0,2012-11-24 10:53:00
3:53 AM,16.0,10.9,81,30.33,10.0,SE,5.8,-,N/A,,Clear,130,2012-11-24 11:53:00
4:53 AM,16.0,10.0,77,30.35,10.0,Calm,Calm,-,N/A,,Clear,0,2012-11-24 12:53:00
5:53 AM,19.0,14.0,81,30.36,10.0,WNW,5.8,-,N/A,,Clear,300,2012-11-24 13:53:00
6:53 AM,17.1,10.9,77,30.38,10.0,East,6.9,-,N/A,,Clear,100,2012-11-24 14:53:00
7:53 AM,24.1,16.0,71,30.37,10.0,Calm,Calm,-,N/A,,Clear,0,2012-11-24 15:53:00
8:53 AM,32.0,19.9,61,30.37,10.0,Calm,Calm,-,N/A,,Clear,0,2012-11-24 16:53:00
9:53 AM,39.9,24.1,53,30.35,10.0,Calm,Calm,-,N/A,,Clear,0,2012-11-24 17:53:00
10:53 AM,46.9,25.0,42,30.30,10.0,WNW,3.5,-,N/A,,Clear,290,2012-11-24 18:53:00
11:53 AM,53.1,27.0,37,30.25,10.0,Calm,Calm,-,N/A,,Clear,0,2012-11-24 19:53:00
12:53 PM,55.9,25.0,30,30.21,10.0,West,9.2,-,N/A,,Clear,260,2012-11-24 20:53:00
1:53 PM,57.0,23.0,27,30.19,10.0,West,5.8,-,N/A,,Clear,280,2012-11-24 21:53:00
2:53 PM,57.9,23.0,26,30.16,10.0,WNW,5.8,-,N/A,,Clear,290,2012-11-24 22:53:00
3:53 PM,55.9,24.1,29,30.16,10.0,WNW,4.6,-,N/A,,Clear,290,2012-11-24 23:53:00
4:53 PM,51.1,23.0,33,30.16,10.0,WSW,3.5,-,N/A,,Clear,250,2012-11-25 00:53:00
5:53 PM,39.0,19.0,45,30.17,10.0,SSE,3.5,-,N/A,,Clear,150,2012-11-25 01:53:00
6:53 PM,34.0,18.0,52,30.18,10.0,Calm,Calm,-,N/A,,Clear,0,2012-11-25 02:53:00
7:53 PM,30.0,19.9,66,30.18,10.0,East,3.5,-,N/A,,Clear,80,2012-11-25 03:53:00
8:53 PM,27.0,17.1,66,30.15,10.0,Calm,Calm,-,N/A,,Clear,0,2012-11-25 04:53:00
9:53 PM,25.0,10.9,55,30.14,10.0,Calm,Calm,-,N/A,,Clear,0,2012-11-25 05:53:00
10:53 PM,19.0,9.0,65,30.14,10.0,Calm,Calm,-,N/A,,Clear,0,2012-11-25 06:53:00
11:53 PM,21.0,12.0,68,30.10,10.0,Calm,Calm,-,N/A,,Clear,0,2012-11-25 07:53:00